Wind_Speed
20 19 19 18 17 16 14 12 11 5 4 6 7 7 4 5 6 6 6 8 9 9 8 10 10 10 10 12 10 12 13 12 15 16 15 14 7 12 9 12 13 18 18
26 23 20 19 18 16 16 12 11 9 6 7 5 2 3 5 6 6 7 8 10 10 10 12 12 10 12 14 12 16 14 14 13 17 16 16 13 9 11 17 17 16 15
28 24 22 20 19 18 17 15 13 11 9 6 4 6 5 6 7 7 7 7 9 11 10 9 11 11 15 14 16 16 11 13 12 12 12 10 11 14 15 14 16 18 17
27 24 25 24 21 18 17 16 15 13 12 11 12 8 6 6 6 5 6 4 3 4 7 6 6 8 10 13 13 12 13 17 13 13 10 12 14 16 15 9 16 15 14
27 27 28 25 23 21 19 18 17 16 13 12 11 10 7 6 5 1 3 1 3 6 6 9 10 10 10 10 9 10 13 12 9 14 15 14 12 7 12 12 14 13 18
28 29 26 26 24 24 23 21 20 16 13 12 11 9 9 8 5 6 4 2 7 8 10 11 12 12 11 8 10 9 12 14 13 14 15 16 22 20 15 15 18 14 15
34 24 25 27 25 24 23 22 19 17 14 11 11 10 9 10 8 7 2 4 6 9 10 9 6 8 13 12 10 10 10 10 13 17 19 18 19 18 18 20 18 17 14
33 26 24 25 23 21 20 23 20 18 17 14 14 12 14 10 9 8 3 4 5 7 4 6 8 5 7 8 10 11 10 9 8 8 10 12 13 17 20 21 17 16 16
30 27 27 26 24 21 20 21 21 19 18 16 15 16 13 12 10 7 1 1 5 5 14 9 9 7 9 10 10 9 9 9 9 11 11 13 14 15 15 15 16 16 14
31 29 27 26 24 21 23 23 21 19 18 15 15 14 12 12 11 8 2 1 5 4 7 10 14 12 16 15 12 12 9 10 10 10 12 16 14 14 13 13 13 17 17
31 29 29 28 24 22 23 23 22 18 18 19 18 16 14 13 9 6 4 4 3 3 5 8 16 17 14 12 11 12 12 12 11 11 10 12 12 14 14 14 12 13 15
33 33 31 28 25 24 23 22 21 22 23 22 16 12 11 9 10 8 6 8 8 7 6 8 15 14 12 10 9 9 9 6 8 7 9 8 11 10 12 13 14 15 15
34 33 33 30 28 26 27 23 22 24 18 16 13 10 8 11 11 10 8 8 9 7 8 9 7 6 8 9 13 13 5 5 6 6 7 7 10 15 15 14 15 15 17
32 31 30 31 30 27 22 22 17 17 15 14 12 12 10 8 6 6 4 7 9 8 7 7 9 9 11 7 5 8 8 4 2 4 4 7 9 9 9 12 11 12 13
26 28 30 29 26 27 28 25 23 24 20 15 13 12 12 11 12 6 6 7 6 5 1 1 1 2 3 5 6 7 9 9 9 10 10 10 10 10 10 11 13 14 14
27 30 28 28 28 32 32 31 25 25 24 20 17 18 17 13 12 8 8 10 6 1 4 3 1 1 2 4 5 6 8 8 9 9 9 8 9 11 13 11 10 11 14
32 31 32 28 28 26 29 34 30 25 25 22 20 18 12 15 12 10 10 7 2 4 4 3 2 1 2 3 4 5 5 7 8 8 9 10 10 11 12 11 12 14 15
28 33 33 29 24 23 20 27 28 25 24 23 21 17 16 14 12 10 9 5 3 5 5 3 1 1 1 2 3 5 6 5 8 9 8 9 10 11 12 13 13 15 16
32 35 34 31 19 13 19 23 19 18 20 22 20 19 19 15 12 11 9 8 7 6 5 4 4 2 1 2 2 2 4 5 7 7 8 9 10 11 12 13 14 17 20
25 27 28 25 29 35 26 28 18 18 17 19 20 22 20 17 13 13 9 8 8 7 6 6 5 3 2 1 1 1 2 4 5 6 7 8 9 9 10 11 12 14 14
16 21 22 27 23 27 25 20 18 20 18 14 15 16 19 14 11 12 11 11 10 8 7 7 5 3 0 2 1 2 3 4 6 7 7 8 10 11 12 13 14 14 15
16 25 27 17 18 20 19 18 20 20 17 16 17 22 17 13 13 12 13 11 10 10 8 8 6 5 4 3 1 3 5 5 4 7 9 9 10 10 11 13 13 14 14
17 21 26 25 21 22 22 21 19 20 20 21 22 18 23 16 15 14 13 12 10 9 9 6 6 5 5 3 1 1 1 4 9 11 10 12 11 11 12 13 14 14 15
23 23 26 25 22 22 22 23 22 22 23 23 21 18 20 18 17 17 15 13 11 10 8 7 7 8 5 3 1 2 7 10 11 12 14 14 13 12 12 12 14 16 18
24 27 30 29 27 26 25 25 24 25 25 24 22 20 19 19 19 18 16 15 12 11 9 8 6 5 4 5 7 8 8 10 11 12 13 14 14 12 12 13 15 17 18
24 25 26 28 27 27 26 27 26 26 26 24 23 21 19 19 19 18 17 15 14 12 9 7 9 9 5 3 8 8 10 11 13 12 13 13 11 11 13 14 15 17 17
Wind_Direction
190 197 198 203 208 210 216 228 235 215 224 190 204 213 199 212 217 238 235 253 262 261 258 259 257 270 267 254 258 259 268 271 281 286 279 299 267 226 253 257 254 251 265
188 199 198 198 201 209 212 220 229 226 208 206 214 197 181 222 230 245 263 259 275 276 275 271 267 264 277 285 272 259 261 263 274 285 285 266 282 277 257 248 260 248 259
208 195 193 197 201 203 213 210 217 223 225 226 230 235 230 225 233 263 267 272 276 290 289 294 285 274 275 278 265 271 272 270 275 270 280 275 274 283 276 264 263 259 245
203 200 200 198 199 199 204 212 207 211 215 211 223 235 215 230 263 252 261 283 315 310 314 307 289 279 284 273 272 273 273 265 254 260 263 272 269 264 278 256 273 276 256
205 189 205 206 208 207 206 206 212 212 211 211 217 213 197 233 224 187 176 181 326 318 307 309 305 273 287 277 263 267 266 274 260 259 261 268 278 287 256 264 257 264 271
203 197 201 212 215 207 207 213 210 210 200 207 212 200 183 208 232 178 158 336 330 321 299 272 272 304 290 272 287 284 281 276 268 266 269 281 278 285 285 275 271 259 277
209 205 210 211 206 207 210 207 206 202 191 191 191 178 184 199 186 176 220 324 331 309 331 332 292 268 263 283 291 297 292 289 274 263 269 274 277 277 279 282 283 261 267
210 204 205 199 197 203 208 204 199 199 186 178 178 178 193 180 187 197 247 336 347 352 356 0 0 341 298 296 294 296 298 295 296 297 292 295 289 284 284 286 280 277 271
204 200 198 201 199 205 202 196 194 186 184 179 178 181 193 190 193 202 155 298 343 333 348 352 346 336 330 319 314 307 298 309 301 289 296 294 290 290 282 279 274 279 262
195 199 200 198 204 212 190 194 191 186 184 166 176 178 192 192 194 196 196 315 323 321 288 317 316 304 306 300 295 290 298 287 282 303 308 312 314 317 311 292 288 273 261
195 197 197 197 206 193 193 188 183 174 179 176 175 185 193 196 195 209 255 262 285 311 288 300 296 304 312 309 296 287 280 282 285 304 311 312 300 311 298 297 297 288 276
194 192 191 192 176 188 187 185 178 178 181 184 179 172 201 197 214 224 256 278 300 309 311 287 299 315 320 327 331 314 304 340 325 299 303 302 304 297 319 307 298 295 289
182 182 181 175 169 180 178 176 172 185 176 175 175 177 193 211 222 233 263 289 305 307 301 311 315 339 8 13 334 349 327 360 355 336 310 310 305 309 310 322 310 309 305
179 179 174 168 175 169 171 170 173 178 185 185 184 191 194 191 205 235 276 312 321 330 336 351 17 21 15 34 22 3 16 17 16 288 305 286 280 283 318 291 294 289 306
181 175 174 172 167 164 172 174 177 185 189 198 199 202 203 197 209 237 257 287 289 301 122 173 60 69 25 34 35 25 20 25 30 18 6 359 349 336 323 320 323 324 324
179 182 178 174 169 180 174 176 185 187 192 191 198 209 198 211 238 264 292 300 291 255 113 182 172 96 68 47 47 36 27 23 20 16 2 1 360 350 348 351 334 326 320
185 187 175 174 173 173 177 184 191 194 198 202 212 218 218 225 249 276 291 286 255 150 145 176 147 118 66 55 45 21 30 14 18 14 8 359 359 356 356 353 350 341 342
200 196 184 173 172 172 177 191 201 206 205 209 217 225 221 227 251 271 272 242 132 135 166 158 155 124 86 53 47 13 22 12 0 16 358 349 348 348 346 347 346 338 338
197 185 186 185 231 231 200 200 189 197 203 212 217 216 219 228 243 256 231 169 195 190 172 169 153 178 88 72 61 35 28 350 4 7 356 349 345 346 343 339 339 339 342
206 226 221 218 214 195 193 206 198 187 196 222 207 207 215 220 233 237 210 189 183 198 180 173 169 168 158 151 56 23 347 3 354 3 348 346 339 340 331 334 331 332 333
206 200 198 187 187 191 201 194 187 186 191 190 190 211 218 216 205 206 199 195 184 194 187 188 179 169 218 253 202 298 340 2 3 354 340 341 338 336 338 336 334 332 329
196 180 177 181 192 199 203 205 199 194 188 191 195 213 212 196 213 209 206 200 196 185 201 196 176 181 198 227 274 23 9 14 341 335 340 339 335 336 331 332 333 327 328
183 193 192 195 204 201 202 203 199 197 196 198 202 206 202 201 209 205 208 204 200 192 197 183 189 186 211 208 167 76 268 298 327 331 332 332 334 327 328 329 327 329 323
190 196 191 202 204 204 204 205 204 203 201 200 202 197 196 202 205 204 201 202 199 199 198 193 187 191 234 182 138 262 319 327 325 324 325 327 327 327 323 329 327 324 322
202 203 201 205 211 206 202 202 201 201 201 201 202 202 197 201 201 201 197 199 194 199 193 192 188 216 233 244 247 287 316 318 319 321 326 327 328 335 331 323 320 323 323
206 207 209 208 207 202 199 197 201 202 202 202 205 202 200 201 203 200 197 196 197 191 195 188 216 214 255 267 276 315 329 327 326 329 332 336 340 325 320 319 321 320 321
Height
1543 1545 1548 1551 1554 1556 1558 1557 1559 1569 1572 1576 1578 1578 1569 1570 1573 1575 1575 1576 1574 1574 1575 1574 1573 1572 1573 1572 1572 1572 1571 1571 1569 1567 1563 1561 1565 1567 1563 1563 1566 1566 1566
1534 1540 1545 1548 1552 1554 1556 1557 1558 1561 1568 1572 1571 1566 1565 1570 1572 1573 1573 1573 1572 1572 1571 1570 1569 1570 1569 1569 1569 1568 1568 1567 1567 1565 1562 1560 1558 1558 1559 1561 1564 1564 1565
1533 1537 1541 1545 1548 1552 1554 1557 1559 1559 1559 1560 1561 1564 1567 1570 1570 1570 1570 1570 1569 1569 1568 1567 1566 1567 1567 1566 1565 1564 1564 1564 1563 1563 1562 1561 1560 1558 1558 1559 1560 1560 1562
1527 1534 1538 1539 1545 1549 1552 1555 1557 1559 1560 1562 1563 1564 1567 1568 1569 1568 1569 1568 1567 1568 1565 1563 1564 1565 1564 1563 1562 1562 1561 1559 1560 1560 1561 1560 1559 1556 1556 1557 1557 1556 1557
1524 1530 1534 1537 1540 1545 1549 1553 1555 1556 1558 1561 1562 1564 1566 1567 1567 1566 1567 1567 1567 1567 1566 1565 1564 1562 1562 1561 1560 1561 1558 1557 1557 1557 1557 1556 1556 1555 1555 1555 1554 1554 1552
1521 1526 1531 1534 1537 1540 1545 1548 1551 1554 1557 1559 1560 1561 1563 1563 1565 1565 1566 1566 1565 1564 1563 1561 1561 1560 1558 1558 1558 1557 1557 1555 1555 1554 1554 1553 1553 1553 1553 1550 1549 1548 1548
1518 1523 1527 1529 1533 1537 1540 1544 1548 1551 1553 1556 1559 1560 1561 1561 1563 1564 1565 1565 1564 1562 1560 1558 1557 1558 1556 1555 1555 1553 1553 1552 1552 1551 1550 1550 1550 1549 1548 1546 1545 1544 1543
1514 1519 1523 1527 1531 1535 1537 1540 1545 1549 1550 1552 1555 1558 1558 1560 1561 1562 1563 1564 1562 1560 1561 1559 1556 1555 1554 1553 1552 1550 1549 1549 1549 1548 1547 1547 1546 1546 1544 1542 1541 1539 1539
1510 1516 1521 1524 1528 1531 1534 1538 1542 1545 1548 1550 1553 1555 1556 1558 1559 1561 1563 1564 1562 1561 1559 1557 1555 1554 1553 1551 1549 1548 1547 1547 1545 1545 1544 1543 1542 1540 1539 1538 1537 1536 1534
1503 1508 1513 1519 1524 1527 1532 1535 1540 1544 1545 1549 1552 1555 1555 1557 1558 1560 1562 1563 1561 1561 1557 1555 1553 1551 1549 1547 1546 1545 1544 1545 1543 1543 1542 1539 1537 1536 1535 1534 1533 1531 1531
1497 1502 1507 1513 1519 1527 1531 1534 1538 1542 1545 1548 1550 1551 1553 1555 1556 1557 1558 1558 1559 1559 1558 1557 1549 1548 1545 1543 1541 1539 1538 1538 1538 1538 1539 1539 1537 1535 1532 1530 1530 1529 1527
1491 1496 1502 1508 1515 1523 1530 1534 1537 1539 1542 1546 1548 1550 1551 1553 1554 1553 1554 1553 1553 1554 1554 1552 1547 1544 1541 1539 1537 1535 1534 1535 1537 1536 1536 1536 1535 1533 1531 1529 1528 1526 1524
1490 1495 1499 1505 1513 1517 1524 1531 1536 1539 1542 1545 1548 1551 1549 1550 1550 1551 1551 1551 1551 1550 1548 1545 1543 1541 1539 1537 1535 1533 1531 1532 1533 1534 1533 1532 1532 1530 1528 1527 1525 1522 1521
1492 1497 1501 1505 1510 1515 1522 1525 1534 1539 1543 1545 1547 1550 1550 1549 1549 1548 1549 1548 1547 1546 1545 1542 1542 1540 1537 1536 1533 1531 1529 1528 1528 1529 1529 1527 1526 1526 1526 1524 1521 1519 1517
1493 1497 1501 1503 1509 1512 1514 1522 1526 1530 1537 1543 1544 1546 1548 1548 1546 1547 1546 1545 1545 1544 1544 1545 1543 1541 1540 1537 1535 1531 1529 1527 1527 1527 1526 1525 1525 1524 1522 1521 1519 1517 1517
1490 1494 1498 1501 1503 1507 1509 1515 1520 1526 1531 1536 1540 1541 1543 1545 1545 1544 1544 1542 1541 1541 1543 1544 1541 1539 1536 1534 1533 1531 1528 1526 1525 1526 1525 1523 1522 1521 1518 1518 1516 1514 1513
1484 1489 1492 1498 1501 1505 1505 1509 1516 1523 1527 1531 1533 1538 1541 1543 1542 1541 1540 1540 1539 1538 1539 1540 1539 1537 1535 1533 1530 1528 1527 1523 1522 1523 1525 1524 1522 1520 1518 1515 1514 1511 1509
1481 1487 1489 1494 1499 1502 1503 1509 1512 1519 1523 1526 1530 1532 1536 1538 1539 1539 1539 1538 1537 1538 1538 1539 1539 1538 1534 1530 1530 1529 1529 1527 1522 1521 1522 1522 1522 1520 1518 1516 1514 1511 1508
1474 1480 1484 1484 1495 1494 1507 1505 1509 1514 1519 1523 1523 1526 1532 1534 1535 1537 1537 1535 1538 1538 1536 1535 1534 1535 1532 1530 1528 1527 1528 1527 1523 1523 1524 1523 1522 1520 1518 1516 1513 1510 1507
1471 1472 1477 1481 1494 1499 1502 1505 1503 1512 1516 1518 1520 1522 1526 1531 1531 1533 1534 1535 1535 1536 1534 1531 1531 1531 1529 1530 1527 1527 1527 1527 1524 1524 1522 1521 1519 1516 1513 1511 1509 1508 1507
1465 1468 1473 1484 1489 1488 1498 1500 1501 1509 1514 1514 1519 1520 1524 1528 1530 1532 1532 1531 1529 1531 1530 1530 1527 1528 1530 1530 1527 1525 1523 1523 1522 1522 1519 1518 1518 1516 1514 1512 1510 1508 1506
1469 1471 1474 1480 1485 1491 1496 1501 1504 1507 1507 1513 1519 1519 1523 1527 1532 1531 1531 1528 1526 1525 1527 1524 1524 1524 1525 1526 1523 1520 1521 1521 1519 1517 1516 1514 1513 1513 1511 1508 1506 1505 1503
1470 1473 1477 1482 1487 1490 1494 1499 1499 1501 1504 1510 1516 1514 1517 1523 1526 1526 1527 1526 1524 1523 1522 1522 1522 1524 1524 1523 1519 1516 1516 1514 1514 1514 1514 1512 1511 1509 1507 1506 1503 1502 1501
1469 1471 1475 1481 1484 1487 1491 1495 1497 1501 1505 1509 1511 1510 1512 1518 1519 1519 1519 1520 1519 1519 1517 1517 1519 1519 1519 1520 1518 1516 1513 1513 1511 1511 1510 1509 1508 1505 1503 1503 1502 1500 1498
1467 1470 1473 1478 1481 1483 1486 1492 1495 1499 1502 1503 1505 1508 1509 1511 1514 1514 1516 1514 1513 1515 1513 1513 1515 1514 1516 1516 1513 1511 1509 1509 1509 1507 1507 1507 1506 1503 1503 1501 1499 1496 1495
1464 1468 1472 1474 1477 1479 1482 1485 1489 1492 1495 1498 1503 1502 1504 1507 1510 1510 1509 1508 1507 1509 1510 1512 1511 1511 1511 1511 1509 1508 1506 1506 1506 1504 1502 1502 1502 1503 1500 1497 1494 1491 1489